Weather in Bystrovka

Russia / Novosibirsk Oblast     54°32′09″N   82°35′03″E
temp.,
°C
wind,
m/s
gust,
m/s
humid.,
%
clouds,
%
prec.,
mm/h
press.,
hPa
HPBL,
m
3 march, wed
wed301:00−17sw229693 0.1 101720
04:00−18wsw229781 0.0 101720
07:00−18sw239685 0.1 101822
10:00−16sw239578 0.1 1019139
13:00−12sw348986 0.1 1020362
16:00−10ssw4688100 0.1 1020532
19:00−12ssw4793100 0.1 1021126
22:00−13ssw5109342 0.0 1022214
4 march, thu
thu401:00−15ssw6129238 0.0 1023256
04:00−14ssw7149090 0.0 1022325
07:00−11ssw8158895 0.1 1022467
10:00−9ssw91686100 0.0 1021528
13:00−7ssw91587100 0.0 1020603
16:00−5ssw91686100 0.0 1019668
19:00−4ssw81684100 0.1 1018608
22:00−6ssw91686100 0.0 1017509
5 march, fri
fri501:00−7ssw81786100 0.0 1015388
04:00−7ssw81683100 0.0 1014356
07:00−8ssw81581100 0.0 1012408
10:00−6ssw91690100 0.2 1011659
13:00−3sw101592100 0.8 1012967
16:00−3wsw9147696 0.1 1015932
19:00−5sw9168098 0.1 1017637
22:00−6sw101791100 0.6 1018943
6 march, sat
sat601:00−6sw81590100 0.8 1019688
04:00−6sw81492100 0.1 1019582
07:00−6ssw91593100 0.7 1019628
10:00−6ssw101789100 0.8 1018745
13:00−5ssw111882100 0.8 1016798
16:00−4sw10188096 0.0 1015826
19:00−5sw9178497 0.0 1014699
22:00−4sw91786100 0.1 1014712
7 march, sun
sun701:00−4sw91588100 0.1 1014617
04:00−4sw81490100 0.1 1015590
07:00−6ssw61092100 0.1 1016216
10:00−6ssw71293100 0.1 1016372
13:00−4ssw91491100 0.3 1015592
16:00−2ssw101680100 0.2 1014757
19:00−3ssw91679100 0.2 1013454
22:00−3sw81682100 0.0 1014439